Location: Newark
(41.1192°N, 81.5292°W)
Time: 20:41:59
(UTC+00:00)

ISS - Visible Passes

Search period start: 22 November 2019 00:00
Search period end: 02 December 2019 00:00
Orbit: 412 x 421 km, 51.6° (Epoch: 23 November)

Date Brightness Start Highest point End Pass type
(mag) Time Alt. Az. Time Alt. Az. Time Alt. Az.
22 Nov -1.4 00:26:19 10° WSW 00:27:46 23° WSW 00:27:46 23° WSW visible
22 Nov -3.9 23:37:53 10° SW 23:41:12 77° SE 23:41:34 66° E visible
23 Nov -3.1 22:49:40 10° SSW 22:52:51 42° SE 22:55:18 15° ENE visible
24 Nov -1.2 00:26:42 10° W 00:28:13 20° WNW 00:28:13 20° WNW visible
24 Nov -2.9 23:37:55 10° WSW 23:41:07 41° NNW 23:41:52 35° N visible
25 Nov -3.6 22:49:17 10° WSW 22:52:37 67° NNW 22:55:26 14° NE visible
26 Nov -0.9 00:27:27 10° WNW 00:28:21 14° NW 00:28:21 14° NW visible
26 Nov -2.0 23:38:28 10° WNW 23:41:10 22° NNW 23:41:52 21° N visible
27 Nov -2.3 22:49:32 10° W 22:52:33 30° NNW 22:55:20 11° NE visible
28 Nov -0.6 00:28:11 10° NW 00:28:14 10° NW 00:28:14 10° NW visible
28 Nov -1.5 23:39:13 10° NW 23:41:21 16° N 23:41:40 15° N visible
29 Nov -1.7 22:50:11 10° WNW 22:52:37 18° NNW 22:55:04 10° NNE visible
30 Nov -1.4 23:39:45 10° NNW 23:41:22 14° N 23:41:22 14° N visible
01 Dec -1.5 22:50:51 10° NW 22:52:47 14° N 22:54:42 10° NNE visible
